Regional Weather Roundup
Issued by NWS Charleston, SC

Current Version | Previous Version | Text Only | Print | Product List | Glossary Off
Versions: 1 2 3 4 5 6 7 8 9 10 11 12 13 14 15 16 17 18 19 20 21 22 23 24 25 26 27 28 29 30 31 32 33 34 35 36 37 38 39 40 41 42 43 44 45 46 47 48 49 50
000 ASUS42 KCHS 181625 RWRCHS REGIONAL WEATHER ROUNDUP NATIONAL WEATHER SERVICE CHARLESTON SC 1100 AM EST THU DEC 18 2014 NOTE: "FAIR" INDICATES FEW OR NO CLOUDS BELOW 12,000 FEET WITH NO SIGNIFICANT WEATHER AND/OR OBSTRUCTIONS TO VISIBILITY. NOT ALL STATIONS ARE QUALITY CONTROLLED BY THE NATIONAL WEATHER SERVICE. USE DATA WITH CAUTION...ESPECIALLY DEWPOINT OBSERVATIONS. SCZ027-030-031-034>040-042>050-181700- ...SOUTHEAST SOUTH CAROLINA... CITY SKY/WX TMP DP RH WIND PRES REMARKS N CHARLESTON PTSUNNY 57 42 57 NE3 30.17S WATERFRONT PRK N/A 57 N/A N/A N3 N/A MOUNT PLEASANT LGT RAIN 57 45 62 CALM 30.16F PINOPOLIS N/A 52 45 76 VRB3 30.11R MONCKS CORNER FAIR 57 45 62 E3 30.16F SUMMERVILLE FAIR 55 45 67 NE5 30.16F BEAUFORT MCAS PTSUNNY 52 43 71 CALM 30.17F BEAUFORT ARPT FAIR 52 46 82 CALM 30.16F HILTON HEAD IS MOSUNNY 50 43 76 CALM 30.19F WALTERBORO MOSUNNY 55 41 58 E3 30.16F ALLENDALE FAIR 54 43 66 N5 30.16F ...SOUTHERN MIDLANDS AND PEE DEE... CITY SKY/WX TMP DP RH WIND PRES REMARKS GEORGETOWN NOT AVBL KINGSTREE NOT AVBL ORANGEBURG SUNNY 53 37 54 E10 30.18S BARNWELL FAIR 55 43 62 CALM 30.17F AIKEN FAIR 54 37 54 NE6 30.20S MANNING NOT AVBL COLUMBIA MOSUNNY 55 28 35 E12 30.18F SUMTER SUNNY 53 30 40 NE10 30.18S FLORENCE MOSUNNY 51 30 44 E9 30.19F MYRTLE BEACH SUNNY 54 34 47 N13 30.19S N MYRTLE BEACH SUNNY 52 30 43 NE10 30.18S $$ GAZ063-065-086>088-099>101-113>116-118-119-134>141-150-181700- ...SOUTHEAST GEORGIA... CITY SKY/WX TMP DP RH WIND PRES REMARKS SAVANNAH ARPT MOSUNNY 52 39 61 CALM 30.18F HUNTER AAF SUNNY 51 40 67 N3 30.16F FORT STEWART SUNNY 51 38 61 CALM 30.16F STATESBORO MOSUNNY 51 41 70 N3 30.17F SYLVANIA SUNNY 53 44 71 CALM 30.17F CLAXTON FAIR 52 41 66 CALM 30.18F ...CSRA...CENTRAL AND FAR SOUTHEAST GEORGIA... CITY SKY/WX TMP DP RH WIND PRES REMARKS THOMSON SUNNY 53 41 64 CALM 30.22S AUGUSTA-BUSH SUNNY 49 39 68 CALM 30.18F AUGUSTA-DANIEL SUNNY 51 38 60 VRB3 30.18F SWAINSBORO FAIR 52 43 71 CALM 30.18F VIDALIA PTSUNNY 50 39 66 CALM 30.17F EASTMAN FAIR 52 39 61 NW3 30.21F HAZLEHURST FAIR 53 42 66 CALM 30.17F ALMA CLOUDY 50 39 66 NW3 30.20S WAYCROSS CLOUDY 55 41 59 W3 30.19F JESUP FAIR 54 43 66 W3 30.19F BAXLEY FAIR 52 41 66 CALM 30.17F BRUNSWICK PTSUNNY 54 41 62 W5 30.19F SAINT SIMONS CLOUDY 51 41 68 CALM 30.19F $$ SCZ027-028-034-036>038-045-046-048>050-GAZ119-141-181700- ...LAKE AND SUPPLEMENTAL COASTAL OBSERVATIONS... STATION/POSITION TIME TEMP WIND PRES WAVE SWELL AIR SEA DIR/SP/G HT/PER HT/PER/DIR (UTC) (F) (DEG/KT/KT) (MB) (FT/S) (FT/S/D) UPR LAKE MARION NOT AVBL WINYAH BAY 1600 53 50/ 12 1021.0S LAKE MURRAY 1500 48 70/ 5/ 9 1022.0R ACE BASIN NERRS 1600 53 CALM 1021.0S FORT PULASKI 1600 48 56 270/ 5/ 6 1022.2F SAPELO ISLAND 1600 50 300/ 5 1022.0S $$ ANZ835-935-AMZ111-154-330-350-352-354-370-450-454-472-181700- ...C-MAN AND BUOY OBSERVATIONS... STATION/POSITION TIME TEMP WIND PRES WAVE SWELL AIR SEA DIR/SP/G HT/PER HT/PER/DIR (UTC) (F) (DEG/KT/KT) (MB) (FT/S) (FT/S/D) BUOY 41004 1600 60 72 320/ 4/ 6 1021.2R 1/10 2/10 BUOY 41008 1600 50 57 310/ 6/ 6 1022.4R 1/11 2/ 90/11 FOLLY BEACH CMAN 1600 55 60/ 3/ 3 1022.0S CAPERS NEARSHORE 1500 55 40/ 8/ 10 N/A FRIPP NEARSHORE NOT AVBL STATION/POSITION TIME TEMP WIND PRES WAVE SWELL AIR SEA DIR/SP/G HT/PER HT/PER/DIR (UTC) (F) (DEG/KT/KT) (MB) (FT/S) (FT/S/D) 5E ST. MARYS GA 1600 61 N/A 1/11 FRYING PAN BUOY 1600 55 64 40/ 12/ 14 1021.9R 3/ 4 2/100/10 BUOY 41025 1600 49 1021.3 3/ 5 CAPE LOOKOUT NC 1600 48 10/ 10/ 13 1021.2F BUOY 41002 1452 70 72 310/ 10/ 14 1019.9F 3/ 7 2/250/ 7 BUOY 41010 1600 72 76 280/ 12/ 16 1021.1F 2/ 3 2/ 60/ 9 ST AUGUSTINE FL 1600 57 340/ 7/ 8 1023.2R $$

USA.gov is the U.S. government's official web portal to all federal, state and local government web resources and services.